SBI2168 URMM-UUDD

Flight info

Callsign SBI2168
Flight time 2h 50m
Altitude 35000
Route URILU5L URILU R227 BEMES DCT VULFI DCT TUVGI DCT EVZUN DCT ZIZAR DCT VAZLU DCT UZZID DCT NOKLI N72 WGD G481 OBABI DCT VUVNE DCT GEKPA/K0841F360 L736 OLOPI
Aircraft A320/M-SDE2E3FGHIRWXY/LB1

Departure

Time 2026-04-17 18:26
Airport Mineralnye Vody Airport (URMM)

Arrival

Time 2026-04-17 21:17
Airport Domodedovo International Airport (UUDD)
Time Latitude Longitude Altitude Speed Heading
2026-04-17 17:57 44.21753 43.08998 1055 ft 0 kts 211°
2026-04-17 18:17 44.21764 43.09008 1055 ft 2 kts 211°
2026-04-17 18:18 44.21778 43.09019 1055 ft 2 kts 211°
2026-04-17 18:18 44.21791 43.09030 1055 ft 2 kts 219°
2026-04-17 18:18 44.21801 43.09046 1055 ft 2 kts 241°
2026-04-17 18:18 44.21806 43.09066 1055 ft 2 kts 261°
2026-04-17 18:19 44.21806 43.09086 1055 ft 2 kts 280°
2026-04-17 18:19 44.21802 43.09105 1055 ft 1 kts 298°
2026-04-17 18:19 44.21799 43.09112 1055 ft 1 kts 303°
2026-04-17 18:19 44.21798 43.09114 1055 ft 0 kts 302°
2026-04-17 18:21 44.21802 43.09106 1055 ft 2 kts 302°
2026-04-17 18:21 44.21816 43.09077 1055 ft 4 kts 311°
2026-04-17 18:21 44.21851 43.09060 1055 ft 6 kts 11°
2026-04-17 18:22 44.21898 43.09098 1055 ft 9 kts 32°
2026-04-17 18:22 44.21963 43.09128 1055 ft 11 kts 349°
2026-04-17 18:22 44.22040 43.09076 1055 ft 13 kts 333°
2026-04-17 18:22 44.22129 43.09013 1055 ft 15 kts 332°
2026-04-17 18:23 44.22228 43.08942 1055 ft 16 kts 333°
2026-04-17 18:23 44.22337 43.08863 1055 ft 18 kts 331°
2026-04-17 18:23 44.22447 43.08762 1055 ft 19 kts 317°
2026-04-17 18:23 44.22539 43.08613 1055 ft 20 kts 302°
2026-04-17 18:24 44.22617 43.08439 1055 ft 21 kts 302°
2026-04-17 18:24 44.22698 43.08260 1055 ft 21 kts 302°
2026-04-17 18:24 44.22777 43.08084 1055 ft 21 kts 302°
2026-04-17 18:24 44.22856 43.07909 1055 ft 21 kts 302°
2026-04-17 18:25 44.22934 43.07737 1055 ft 20 kts 302°
2026-04-17 18:25 44.22996 43.07567 1055 ft 16 kts 283°
2026-04-17 18:25 44.23024 43.07493 1055 ft 5 kts
2026-04-17 18:25 44.23032 43.07525 1055 ft 0 kts 123°
2026-04-17 18:26 44.23011 43.07568 1055 ft 27 kts 123°
2026-04-17 18:26 44.22760 43.08121 1055 ft 105 kts 122°
2026-04-17 18:26 44.22245 43.09255 1061 ft 167 kts 121°
2026-04-17 18:26 44.21617 43.10651 1707 ft 173 kts 121°
2026-04-17 18:27 44.21006 43.11995 2731 ft 159 kts 122°
2026-04-17 18:27 44.20427 43.13261 3390 ft 156 kts 122°
2026-04-17 18:27 44.19854 43.14518 3937 ft 158 kts 122°
2026-04-17 18:27 44.19260 43.15825 4435 ft 163 kts 122°
2026-04-17 18:28 44.18632 43.17204 4768 ft 179 kts 122°
2026-04-17 18:28 44.17937 43.18729 5102 ft 195 kts 122°
2026-04-17 18:28 44.17180 43.20393 5392 ft 215 kts 122°
2026-04-17 18:28 44.16332 43.22252 5724 ft 235 kts 123°
2026-04-17 18:29 44.15421 43.24247 6120 ft 253 kts 123°
2026-04-17 18:29 44.14451 43.26373 6611 ft 266 kts 123°
2026-04-17 18:29 44.13451 43.28559 7268 ft 272 kts 123°
2026-04-17 18:29 44.12477 43.30811 7944 ft 278 kts 114°
2026-04-17 18:30 44.12050 43.33441 8571 ft 284 kts 89°
2026-04-17 18:30 44.12296 43.36152 9248 ft 288 kts 79°
2026-04-17 18:30 44.12678 43.38907 9908 ft 293 kts 78°
2026-04-17 18:30 44.13067 43.41700 10502 ft 300 kts 78°
2026-04-17 18:31 44.13466 43.44649 10832 ft 317 kts 78°
2026-04-17 18:31 44.13865 43.47704 11129 ft 333 kts 79°
2026-04-17 18:31 44.14278 43.50934 11415 ft 349 kts 79°
2026-04-17 18:31 44.14710 43.54356 11702 ft 364 kts 79°
2026-04-17 18:32 44.15149 43.57862 12191 ft 371 kts 79°
2026-04-17 18:32 44.15584 43.61360 12801 ft 374 kts 79°
2026-04-17 18:32 44.16030 43.64945 13383 ft 377 kts 79°
2026-04-17 18:32 44.16428 43.68523 13923 ft 381 kts 83°
2026-04-17 18:33 44.16527 43.72240 14448 ft 386 kts 91°
2026-04-17 18:33 44.16275 43.75960 14995 ft 389 kts 98°
2026-04-17 18:33 44.15866 43.79644 15522 ft 392 kts 99°
2026-04-17 18:33 44.15420 43.83400 16017 ft 395 kts 99°
2026-04-17 18:34 44.14970 43.87191 16538 ft 398 kts 99°
2026-04-17 18:34 44.14528 43.90965 17047 ft 400 kts 98°
2026-04-17 18:34 44.14081 43.94819 17540 ft 402 kts 98°
2026-04-17 18:34 44.13638 43.98654 18003 ft 405 kts 98°
2026-04-17 18:35 44.13189 44.02543 18445 ft 408 kts 98°
2026-04-17 18:35 44.12742 44.06416 18867 ft 411 kts 98°
2026-04-17 18:35 44.12291 44.10307 19258 ft 414 kts 98°
2026-04-17 18:35 44.11827 44.14294 19638 ft 418 kts 98°
2026-04-17 18:36 44.11361 44.18296 20029 ft 421 kts 97°
2026-04-17 18:36 44.10889 44.22330 20414 ft 424 kts 97°
2026-04-17 18:36 44.10413 44.26392 20788 ft 427 kts 97°
2026-04-17 18:36 44.09938 44.30439 21158 ft 430 kts 97°
2026-04-17 18:37 44.09456 44.34536 21511 ft 433 kts 97°
2026-04-17 18:37 44.08969 44.38670 21869 ft 436 kts 97°
2026-04-17 18:37 44.08469 44.42878 22206 ft 440 kts 97°
2026-04-17 18:37 44.07970 44.47073 22545 ft 442 kts 97°
2026-04-17 18:38 44.07470 44.51260 22877 ft 445 kts 97°
2026-04-17 18:38 44.06959 44.55523 23208 ft 448 kts 96°
2026-04-17 18:38 44.06454 44.59803 23529 ft 450 kts 95°
2026-04-17 18:38 44.06002 44.64082 23846 ft 452 kts 95°
2026-04-17 18:39 44.05566 44.68399 24135 ft 456 kts 95°
2026-04-17 18:39 44.05124 44.72772 24421 ft 458 kts 95°
2026-04-17 18:39 44.04678 44.77147 24730 ft 461 kts 95°
2026-04-17 18:39 44.04221 44.81575 25038 ft 463 kts 95°
2026-04-17 18:40 44.03760 44.86002 25313 ft 465 kts 95°
2026-04-17 18:40 44.03299 44.90398 25609 ft 467 kts 95°
2026-04-17 18:40 44.02825 44.94877 25896 ft 469 kts 95°
2026-04-17 18:40 44.02347 44.99383 26165 ft 472 kts 95°
2026-04-17 18:41 44.01873 45.03850 26406 ft 475 kts 95°
2026-04-17 18:41 44.01387 45.08409 26674 ft 477 kts 95°
2026-04-17 18:41 44.00903 45.12922 26958 ft 478 kts 95°
2026-04-17 18:41 44.00412 45.17484 27210 ft 480 kts 95°
2026-04-17 18:42 43.99915 45.22083 27446 ft 483 kts 95°
2026-04-17 18:42 43.99406 45.26698 27673 ft 485 kts 95°
2026-04-17 18:42 43.98892 45.31327 27895 ft 487 kts 95°
2026-04-17 18:42 43.98380 45.35918 28120 ft 489 kts 95°
2026-04-17 18:43 43.97858 45.40582 28353 ft 490 kts 95°
2026-04-17 18:43 43.97332 45.45252 28578 ft 491 kts 95°
2026-04-17 18:43 43.96806 45.49923 28845 ft 491 kts 95°
2026-04-17 18:43 43.96281 45.54556 29118 ft 491 kts 95°
2026-04-17 18:44 43.95748 45.59236 29370 ft 491 kts 95°
2026-04-17 18:44 43.95219 45.63879 29634 ft 491 kts 95°
2026-04-17 18:44 43.94680 45.68594 29862 ft 492 kts 95°
2026-04-17 18:44 43.94141 45.73289 30092 ft 493 kts 95°
2026-04-17 18:45 43.93606 45.77924 30323 ft 493 kts 95°
2026-04-17 18:45 43.93104 45.82647 30559 ft 492 kts 93°
2026-04-17 18:45 43.92784 45.87313 30819 ft 489 kts 89°
2026-04-17 18:45 43.92668 45.92021 31109 ft 485 kts 85°
2026-04-17 18:46 43.92759 45.96656 31359 ft 482 kts 81°
2026-04-17 18:46 43.93040 46.01256 31591 ft 480 kts 79°
2026-04-17 18:46 43.93384 46.05868 31836 ft 479 kts 78°
2026-04-17 18:46 43.93731 46.10416 32063 ft 479 kts 78°
2026-04-17 18:47 43.94078 46.15020 32332 ft 478 kts 78°
2026-04-17 18:47 43.94415 46.19582 32614 ft 477 kts 78°
2026-04-17 18:47 43.94743 46.24101 32863 ft 476 kts 78°
2026-04-17 18:47 43.95071 46.28668 33070 ft 476 kts 78°
2026-04-17 18:48 43.95395 46.33233 33281 ft 476 kts 78°
2026-04-17 18:48 43.95714 46.37750 33475 ft 476 kts 78°
2026-04-17 18:48 43.96031 46.42297 33638 ft 476 kts 78°
2026-04-17 18:48 43.96351 46.46899 33795 ft 477 kts 78°
2026-04-17 18:49 43.96664 46.51428 33938 ft 478 kts 78°
2026-04-17 18:49 43.96979 46.56015 34083 ft 479 kts 78°
2026-04-17 18:49 43.97289 46.60572 34245 ft 479 kts 78°
2026-04-17 18:49 43.97602 46.65183 34369 ft 480 kts 79°
2026-04-17 18:50 43.98222 46.74391 34556 ft 482 kts 79°
2026-04-17 18:50 43.98528 46.78988 34710 ft 481 kts 79°
2026-04-17 18:50 43.98833 46.83598 34824 ft 481 kts 79°
2026-04-17 18:51 43.99138 46.88234 34926 ft 482 kts 79°
2026-04-17 18:51 43.99440 46.92862 35017 ft 483 kts 79°
2026-04-17 18:51 44.00036 47.02073 35123 ft 483 kts 79°
2026-04-17 18:52 44.00628 47.11346 35134 ft 482 kts 79°
2026-04-17 18:52 44.01209 47.20579 35137 ft 481 kts 79°
2026-04-17 18:53 44.01783 47.29800 35139 ft 480 kts 79°
2026-04-17 18:53 44.02349 47.38989 35144 ft 480 kts 80°
2026-04-17 18:54 44.02905 47.48172 35138 ft 480 kts 80°
2026-04-17 18:54 44.03455 47.57368 35141 ft 479 kts 80°
2026-04-17 18:55 44.03999 47.66595 35143 ft 479 kts 81°
2026-04-17 18:55 44.04533 47.75783 35141 ft 479 kts 81°
2026-04-17 18:56 44.05065 47.85041 35155 ft 478 kts 81°
2026-04-17 18:56 44.05579 47.94146 35153 ft 477 kts 81°
2026-04-17 18:57 44.06092 48.03329 35161 ft 476 kts 81°
2026-04-17 18:57 44.06591 48.12454 35158 ft 475 kts 82°
2026-04-17 18:58 44.07085 48.21576 35171 ft 475 kts 82°
2026-04-17 18:58 44.07568 48.30681 35177 ft 475 kts 82°
2026-04-17 18:59 44.08050 48.39785 35178 ft 475 kts 82°
2026-04-17 18:59 44.08527 48.48890 35172 ft 475 kts 82°
2026-04-17 19:00 44.08996 48.58004 35181 ft 475 kts 82°
2026-04-17 19:00 44.09456 48.67117 35174 ft 474 kts 83°
2026-04-17 19:01 44.09909 48.76242 35191 ft 474 kts 83°
2026-04-17 19:01 44.10354 48.85368 35190 ft 473 kts 83°
2026-04-17 19:02 44.10790 48.94451 35194 ft 471 kts 83°
2026-04-17 19:02 44.11165 48.98907 35183 ft 467 kts 72°
2026-04-17 19:02 44.12425 49.03024 35188 ft 458 kts 53°
2026-04-17 19:03 44.14459 49.06292 35188 ft 451 kts 36°
2026-04-17 19:03 44.17093 49.08583 35190 ft 444 kts 19°
2026-04-17 19:03 44.20054 49.09705 35192 ft 437 kts
2026-04-17 19:03 44.23030 49.09618 35198 ft 433 kts 348°
2026-04-17 19:04 44.25898 49.08364 35197 ft 429 kts 332°
2026-04-17 19:04 44.28346 49.06108 35195 ft 428 kts 319°
2026-04-17 19:04 44.33178 49.01245 35189 ft 430 kts 334°
2026-04-17 19:05 44.38648 48.97886 35197 ft 431 kts 335°
2026-04-17 19:05 44.44168 48.94601 35184 ft 431 kts 336°
2026-04-17 19:06 44.49676 48.91361 35174 ft 431 kts 336°
2026-04-17 19:06 44.55195 48.88121 35184 ft 431 kts 336°
2026-04-17 19:07 44.60695 48.84893 35176 ft 430 kts 336°
2026-04-17 19:07 44.66209 48.81654 35176 ft 430 kts 336°
2026-04-17 19:08 44.71683 48.78433 35180 ft 430 kts 336°
2026-04-17 19:08 44.77198 48.75177 35172 ft 429 kts 336°
2026-04-17 19:09 44.82679 48.71936 35178 ft 428 kts 336°
2026-04-17 19:09 44.88145 48.68699 35171 ft 428 kts 336°
2026-04-17 19:10 44.93607 48.65455 35192 ft 427 kts 336°
2026-04-17 19:10 44.99089 48.62194 35178 ft 428 kts 336°
2026-04-17 19:11 45.04591 48.58915 35184 ft 428 kts 336°
2026-04-17 19:11 45.10054 48.55652 35187 ft 427 kts 336°
2026-04-17 19:12 45.15541 48.52368 35180 ft 428 kts 336°
2026-04-17 19:12 45.21000 48.49092 35188 ft 428 kts 336°
2026-04-17 19:13 45.26440 48.45822 35173 ft 428 kts 336°
2026-04-17 19:13 45.31935 48.42513 35172 ft 428 kts 336°
2026-04-17 19:14 45.37376 48.39229 35174 ft 428 kts 336°
2026-04-17 19:14 45.42846 48.35918 35181 ft 429 kts 336°
2026-04-17 19:15 45.48330 48.32593 35175 ft 427 kts 335°
2026-04-17 19:15 45.53791 48.29276 35181 ft 428 kts 335°
2026-04-17 19:16 45.59251 48.25954 35176 ft 428 kts 335°
2026-04-17 19:16 45.64711 48.22622 35171 ft 429 kts 335°
2026-04-17 19:17 45.70195 48.19269 35178 ft 428 kts 335°
2026-04-17 19:17 45.75664 48.15918 35170 ft 428 kts 335°
2026-04-17 19:18 45.81150 48.12548 35176 ft 429 kts 335°
2026-04-17 19:18 45.86578 48.09209 35178 ft 429 kts 335°
2026-04-17 19:19 45.92050 48.05833 35170 ft 429 kts 335°
2026-04-17 19:19 45.97534 48.02444 35171 ft 430 kts 335°
2026-04-17 19:20 46.02890 47.98683 35173 ft 429 kts 328°
2026-04-17 19:20 46.07705 47.93660 35171 ft 429 kts 318°
2026-04-17 19:21 46.11804 47.87511 35163 ft 427 kts 309°
2026-04-17 19:21 46.15179 47.80528 35177 ft 427 kts 304°
2026-04-17 19:22 46.18396 47.73370 35174 ft 426 kts 303°
2026-04-17 19:22 46.21604 47.66222 35169 ft 426 kts 304°
2026-04-17 19:23 46.26422 47.55477 35161 ft 425 kts 304°
2026-04-17 19:24 46.29617 47.48344 35168 ft 423 kts 304°
2026-04-17 19:24 46.32805 47.41206 35163 ft 423 kts 304°
2026-04-17 19:25 46.35972 47.34090 35161 ft 422 kts 303°
2026-04-17 19:25 46.39131 47.26978 35171 ft 421 kts 303°
2026-04-17 19:26 46.42300 47.19827 35167 ft 422 kts 303°
2026-04-17 19:26 46.45447 47.12701 35162 ft 421 kts 303°
2026-04-17 19:27 46.48582 47.05588 35164 ft 420 kts 303°
2026-04-17 19:27 46.51712 46.98464 35162 ft 419 kts 303°
2026-04-17 19:28 46.54839 46.91332 35151 ft 418 kts 303°
2026-04-17 19:28 46.57945 46.84230 35159 ft 418 kts 303°
2026-04-17 19:29 46.61039 46.77138 35150 ft 418 kts 303°
2026-04-17 19:29 46.64131 46.70031 35146 ft 418 kts 303°
2026-04-17 19:30 46.67222 46.62904 35148 ft 417 kts 303°
2026-04-17 19:30 46.70297 46.55799 35143 ft 416 kts 303°
2026-04-17 19:31 46.73365 46.48693 35135 ft 416 kts 303°
2026-04-17 19:31 46.76435 46.41566 35148 ft 416 kts 303°
2026-04-17 19:32 46.79505 46.34415 35146 ft 416 kts 303°
2026-04-17 19:32 46.82539 46.27331 35143 ft 415 kts 303°
2026-04-17 19:33 46.85579 46.20209 35133 ft 415 kts 303°
2026-04-17 19:33 46.88721 46.13153 35137 ft 414 kts 307°
2026-04-17 19:34 46.92510 46.06855 35144 ft 413 kts 316°
2026-04-17 19:34 46.96964 46.01550 35147 ft 415 kts 324°
2026-04-17 19:35 47.01971 45.97353 35149 ft 417 kts 332°
2026-04-17 19:35 47.07180 45.93681 35144 ft 416 kts 332°
2026-04-17 19:36 47.12396 45.90033 35149 ft 417 kts 332°
2026-04-17 19:36 47.17630 45.86364 35147 ft 417 kts 332°
2026-04-17 19:37 47.22839 45.82700 35137 ft 417 kts 332°
2026-04-17 19:37 47.28062 45.79018 35152 ft 416 kts 332°
2026-04-17 19:38 47.33259 45.75345 35139 ft 416 kts 332°
2026-04-17 19:38 47.38448 45.71671 35133 ft 416 kts 332°
2026-04-17 19:39 47.43675 45.67962 35135 ft 417 kts 332°
2026-04-17 19:39 47.48888 45.64256 35137 ft 417 kts 332°
2026-04-17 19:40 47.54100 45.60541 35137 ft 416 kts 332°
2026-04-17 19:40 47.59319 45.56811 35135 ft 416 kts 332°
2026-04-17 19:41 47.64536 45.53073 35135 ft 417 kts 332°
2026-04-17 19:41 47.69744 45.49335 35128 ft 417 kts 332°
2026-04-17 19:42 47.74930 45.45492 35113 ft 416 kts 329°
2026-04-17 19:42 47.79840 45.40997 35119 ft 414 kts 324°
2026-04-17 19:43 47.84396 45.35798 35124 ft 414 kts 319°
2026-04-17 19:43 47.88685 45.30093 35121 ft 414 kts 316°
2026-04-17 19:44 47.92937 45.24335 35115 ft 414 kts 316°
2026-04-17 19:44 47.97185 45.18566 35113 ft 414 kts 316°
2026-04-17 19:45 48.01452 45.12909 35285 ft 414 kts 319°
2026-04-17 19:45 48.06097 45.07746 35504 ft 415 kts 323°
2026-04-17 19:45 48.08466 45.05351 35649 ft 414 kts 324°
2026-04-17 19:46 48.10852 45.02959 35743 ft 414 kts 324°
2026-04-17 19:46 48.15631 44.98163 35925 ft 415 kts 324°
2026-04-17 19:46 48.18029 44.95750 36034 ft 414 kts 324°
2026-04-17 19:47 48.20392 44.93368 36092 ft 415 kts 324°
2026-04-17 19:47 48.25274 44.88441 36098 ft 415 kts 323°
2026-04-17 19:48 48.30132 44.83526 36096 ft 414 kts 324°
2026-04-17 19:48 48.34938 44.78653 36106 ft 415 kts 324°
2026-04-17 19:49 48.39890 44.73620 36104 ft 416 kts 324°
2026-04-17 19:49 48.44813 44.68603 36104 ft 415 kts 323°
2026-04-17 19:50 48.49730 44.63578 36097 ft 416 kts 323°
2026-04-17 19:50 48.54535 44.58656 36095 ft 416 kts 323°
2026-04-17 19:51 48.59445 44.53611 36095 ft 416 kts 323°
2026-04-17 19:51 48.64329 44.48580 36098 ft 417 kts 323°
2026-04-17 19:52 48.69151 44.43598 36092 ft 417 kts 323°
2026-04-17 19:52 48.74075 44.38582 36093 ft 417 kts 326°
2026-04-17 19:53 48.79113 44.34294 36088 ft 420 kts 330°
2026-04-17 19:53 48.84519 44.30706 36097 ft 422 kts 335°
2026-04-17 19:54 48.90065 44.27546 36091 ft 423 kts 336°
2026-04-17 19:54 48.95695 44.24368 36086 ft 423 kts 335°
2026-04-17 19:55 49.01203 44.21245 36094 ft 423 kts 335°
2026-04-17 19:55 49.06731 44.18100 36093 ft 423 kts 335°
2026-04-17 19:56 49.12221 44.14967 36079 ft 423 kts 335°
2026-04-17 19:56 49.17804 44.11775 36093 ft 423 kts 335°
2026-04-17 19:57 49.23371 44.08583 36089 ft 424 kts 335°
2026-04-17 19:57 49.28882 44.05416 36094 ft 424 kts 335°
2026-04-17 19:58 49.34509 44.02173 36084 ft 424 kts 335°
2026-04-17 19:58 49.40023 43.98991 36083 ft 425 kts 335°
2026-04-17 19:59 49.45584 43.95770 36083 ft 425 kts 335°
2026-04-17 19:59 49.51219 43.92835 36084 ft 428 kts 340°
2026-04-17 20:00 49.57158 43.90727 36086 ft 431 kts 345°
2026-04-17 20:00 49.63524 43.88960 36079 ft 432 kts 345°
2026-04-17 20:01 49.69722 43.87260 36078 ft 432 kts 345°
2026-04-17 20:01 49.76100 43.85500 36077 ft 432 kts 345°
2026-04-17 20:02 49.82502 43.83724 36075 ft 433 kts 345°
2026-04-17 20:02 49.88863 43.81952 36078 ft 434 kts 345°
2026-04-17 20:03 49.95434 43.80117 36075 ft 434 kts 345°
2026-04-17 20:03 50.02023 43.78273 36074 ft 433 kts 345°
2026-04-17 20:04 50.08524 43.76447 36074 ft 433 kts 345°
2026-04-17 20:04 50.14912 43.74647 36075 ft 435 kts 345°
2026-04-17 20:05 50.21262 43.72854 36077 ft 435 kts 345°
2026-04-17 20:05 50.27453 43.71102 36076 ft 436 kts 345°
2026-04-17 20:06 50.33768 43.69309 36071 ft 436 kts 345°
2026-04-17 20:06 50.39869 43.67571 36072 ft 436 kts 345°
2026-04-17 20:07 50.46067 43.65804 36071 ft 437 kts 345°
2026-04-17 20:07 50.52257 43.64032 36066 ft 438 kts 345°
2026-04-17 20:08 50.58491 43.62242 36061 ft 438 kts 345°
2026-04-17 20:08 50.64628 43.60478 36064 ft 438 kts 345°
2026-04-17 20:09 50.70917 43.58663 36066 ft 438 kts 345°
2026-04-17 20:09 50.77402 43.56788 36064 ft 439 kts 345°
2026-04-17 20:10 50.83980 43.54881 36060 ft 440 kts 345°
2026-04-17 20:10 50.90260 43.53053 36064 ft 440 kts 345°
2026-04-17 20:11 50.96692 43.51171 36064 ft 440 kts 344°
2026-04-17 20:11 51.02773 43.48938 36062 ft 439 kts 341°
2026-04-17 20:12 51.08882 43.46524 36054 ft 439 kts 342°
2026-04-17 20:12 51.15082 43.44072 36055 ft 439 kts 342°
2026-04-17 20:13 51.21256 43.41631 36050 ft 440 kts 342°
2026-04-17 20:13 51.27481 43.39166 36050 ft 440 kts 342°
2026-04-17 20:14 51.33786 43.36663 36046 ft 441 kts 341°
2026-04-17 20:14 51.39993 43.34193 36048 ft 441 kts 341°
2026-04-17 20:15 51.46159 43.31729 36046 ft 441 kts 341°
2026-04-17 20:15 51.52191 43.29314 36040 ft 442 kts 341°
2026-04-17 20:16 51.58294 43.26864 36038 ft 442 kts 341°
2026-04-17 20:16 51.64374 43.24414 36035 ft 443 kts 341°
2026-04-17 20:17 51.70556 43.21920 36031 ft 444 kts 341°
2026-04-17 20:17 51.76710 43.19429 36028 ft 444 kts 341°
2026-04-17 20:18 51.82841 43.16941 36030 ft 445 kts 341°
2026-04-17 20:18 51.89021 43.14427 36028 ft 445 kts 341°
2026-04-17 20:19 51.95408 43.11818 36034 ft 445 kts 341°
2026-04-17 20:19 52.01731 43.09228 36031 ft 445 kts 341°
2026-04-17 20:20 52.08025 43.06642 36028 ft 446 kts 341°
2026-04-17 20:20 52.14216 43.04094 36030 ft 447 kts 341°
2026-04-17 20:21 52.20261 43.01597 36029 ft 448 kts 341°
2026-04-17 20:21 52.26304 42.99092 36025 ft 448 kts 341°
2026-04-17 20:22 52.32299 42.96601 36024 ft 448 kts 341°
2026-04-17 20:22 52.38367 42.94076 36024 ft 448 kts 341°
2026-04-17 20:23 52.44362 42.91573 36023 ft 449 kts 341°
2026-04-17 20:23 52.50420 42.89033 36020 ft 449 kts 341°
2026-04-17 20:24 52.56436 42.86507 36230 ft 450 kts 341°
2026-04-17 20:24 52.59458 42.85236 36122 ft 449 kts 341°
2026-04-17 20:24 52.62526 42.83943 36070 ft 448 kts 341°
2026-04-17 20:25 52.68556 42.81394 36032 ft 449 kts 341°
2026-04-17 20:25 52.74675 42.78801 36018 ft 449 kts 341°
2026-04-17 20:26 52.80759 42.76217 36016 ft 449 kts 341°
2026-04-17 20:26 52.86818 42.73636 36012 ft 450 kts 341°
2026-04-17 20:27 52.92938 42.71021 36011 ft 450 kts 341°
2026-04-17 20:27 52.99180 42.68343 36008 ft 451 kts 341°
2026-04-17 20:28 53.05234 42.65741 36005 ft 451 kts 341°
2026-04-17 20:28 53.11711 42.62949 36002 ft 451 kts 341°
2026-04-17 20:29 53.18246 42.60122 35999 ft 451 kts 341°
2026-04-17 20:29 53.24526 42.57396 35994 ft 452 kts 341°
2026-04-17 20:30 53.33629 42.53433 35986 ft 452 kts 341°
2026-04-17 20:30 53.39362 42.49462 35983 ft 444 kts 325°
2026-04-17 20:31 53.44079 42.43077 35985 ft 435 kts 309°
2026-04-17 20:31 53.47526 42.34856 35986 ft 429 kts 293°
2026-04-17 20:32 53.49597 42.25496 35984 ft 426 kts 284°
2026-04-17 20:32 53.51255 42.15935 35983 ft 427 kts 283°
2026-04-17 20:33 53.52940 42.06151 35980 ft 427 kts 283°
2026-04-17 20:33 53.54609 41.96481 35978 ft 427 kts 283°
2026-04-17 20:34 53.56313 41.86572 35975 ft 427 kts 283°
2026-04-17 20:34 53.57970 41.76891 35969 ft 427 kts 283°
2026-04-17 20:35 53.59617 41.67224 35967 ft 427 kts 283°
2026-04-17 20:35 53.61243 41.57630 35966 ft 428 kts 283°
2026-04-17 20:36 53.62945 41.47522 35961 ft 429 kts 283°
2026-04-17 20:36 53.64615 41.37552 35963 ft 429 kts 283°
2026-04-17 20:37 53.66268 41.27616 35962 ft 429 kts 283°
2026-04-17 20:37 53.67954 41.17431 35959 ft 429 kts 283°
2026-04-17 20:38 53.69658 41.07156 35950 ft 429 kts 284°
2026-04-17 20:38 53.71773 40.97166 35961 ft 433 kts 290°
2026-04-17 20:39 53.74167 40.87843 35959 ft 433 kts 290°
2026-04-17 20:39 53.76718 40.77989 35965 ft 434 kts 291°
2026-04-17 20:40 53.79139 40.68587 35956 ft 434 kts 290°
2026-04-17 20:40 53.81664 40.58720 35956 ft 435 kts 291°
2026-04-17 20:41 53.84140 40.49005 35706 ft 434 kts 290°
2026-04-17 20:41 53.85350 40.44241 35491 ft 432 kts 290°
2026-04-17 20:41 53.86577 40.39399 35275 ft 430 kts 290°
2026-04-17 20:42 53.87783 40.34630 34966 ft 428 kts 289°
2026-04-17 20:42 53.89034 40.29694 34471 ft 427 kts 289°
2026-04-17 20:42 53.90269 40.24812 33802 ft 430 kts 289°
2026-04-17 20:42 53.91534 40.19799 33015 ft 435 kts 289°
2026-04-17 20:43 53.92781 40.14839 32076 ft 439 kts 289°
2026-04-17 20:43 53.94002 40.09981 31209 ft 442 kts 289°
2026-04-17 20:43 53.95193 40.05230 30310 ft 443 kts 289°
2026-04-17 20:43 53.96382 40.00467 29431 ft 444 kts 288°
2026-04-17 20:44 53.97581 39.95661 28652 ft 441 kts 289°
2026-04-17 20:44 53.98761 39.90926 28148 ft 433 kts 288°
2026-04-17 20:44 53.99924 39.86253 27628 ft 426 kts 288°
2026-04-17 20:44 54.01060 39.81673 27121 ft 420 kts 289°
2026-04-17 20:45 54.02171 39.77180 26603 ft 414 kts 288°
2026-04-17 20:45 54.03287 39.72662 26086 ft 409 kts 289°
2026-04-17 20:45 54.04379 39.68234 25580 ft 404 kts 289°
2026-04-17 20:45 54.05480 39.63758 25059 ft 399 kts 288°
2026-04-17 20:46 54.06603 39.59184 24528 ft 394 kts 288°
2026-04-17 20:46 54.07704 39.54682 24002 ft 390 kts 288°
2026-04-17 20:46 54.08790 39.50238 23485 ft 387 kts 288°
2026-04-17 20:46 54.09813 39.46040 22983 ft 384 kts 288°
2026-04-17 20:47 54.10835 39.41840 22487 ft 381 kts 288°
2026-04-17 20:47 54.11842 39.37697 21992 ft 378 kts 288°
2026-04-17 20:47 54.12836 39.33595 21502 ft 375 kts 287°
2026-04-17 20:47 54.13825 39.29504 21008 ft 373 kts 288°
2026-04-17 20:48 54.14834 39.25328 20502 ft 371 kts 288°
2026-04-17 20:48 54.15822 39.21225 19998 ft 369 kts 288°
2026-04-17 20:48 54.16811 39.17114 19490 ft 367 kts 288°
2026-04-17 20:48 54.17796 39.13012 18983 ft 365 kts 288°
2026-04-17 20:49 54.18756 39.09007 18486 ft 364 kts 288°
2026-04-17 20:49 54.19708 39.05022 17988 ft 363 kts 288°
2026-04-17 20:49 54.20663 39.01020 17575 ft 359 kts 288°
2026-04-17 20:49 54.21617 38.97023 17396 ft 355 kts 288°
2026-04-17 20:50 54.22566 38.93154 17161 ft 352 kts 292°
2026-04-17 20:50 54.24043 38.89715 16892 ft 351 kts 312°
2026-04-17 20:50 54.26029 38.87323 16487 ft 355 kts 328°
2026-04-17 20:50 54.28233 38.85444 16050 ft 353 kts 330°
2026-04-17 20:51 54.30438 38.83636 15618 ft 351 kts 330°
2026-04-17 20:51 54.32621 38.81835 15194 ft 349 kts 330°
2026-04-17 20:51 54.34821 38.79993 14766 ft 347 kts 330°
2026-04-17 20:51 54.36995 38.78152 14343 ft 344 kts 330°
2026-04-17 20:52 54.39160 38.76306 13927 ft 342 kts 330°
2026-04-17 20:52 54.41259 38.74510 13526 ft 339 kts 330°
2026-04-17 20:52 54.43363 38.72706 13123 ft 336 kts 330°
2026-04-17 20:52 54.45454 38.70910 12720 ft 333 kts 330°
2026-04-17 20:53 54.47533 38.69124 12317 ft 330 kts 330°
2026-04-17 20:53 54.49580 38.67361 11915 ft 327 kts 330°
2026-04-17 20:53 54.51651 38.65576 11512 ft 324 kts 330°
2026-04-17 20:53 54.53646 38.63854 11119 ft 321 kts 331°
2026-04-17 20:54 54.55605 38.62162 10732 ft 318 kts 331°
2026-04-17 20:54 54.57574 38.60457 10342 ft 314 kts 331°
2026-04-17 20:54 54.59482 38.58806 10129 ft 304 kts 331°
2026-04-17 20:54 54.61338 38.57201 10030 ft 291 kts 331°
2026-04-17 20:55 54.63141 38.55637 9786 ft 285 kts 331°
2026-04-17 20:55 54.64898 38.54108 9430 ft 283 kts 331°
2026-04-17 20:55 54.66651 38.52582 9073 ft 280 kts 331°
2026-04-17 20:55 54.68369 38.51084 8735 ft 278 kts 331°
2026-04-17 20:56 54.70113 38.49564 8394 ft 275 kts 331°
2026-04-17 20:56 54.71825 38.48071 8057 ft 272 kts 331°
2026-04-17 20:56 54.73503 38.46608 7929 ft 261 kts 331°
2026-04-17 20:56 54.75183 38.45153 7776 ft 257 kts 331°
2026-04-17 20:57 54.76783 38.43768 7440 ft 256 kts 331°
2026-04-17 20:57 54.78382 38.42381 7120 ft 255 kts 331°
2026-04-17 20:57 54.79998 38.40977 6798 ft 253 kts 331°
2026-04-17 20:57 54.81595 38.39590 6485 ft 251 kts 331°
2026-04-17 20:58 54.83164 38.38224 6174 ft 249 kts 331°
2026-04-17 20:58 54.84684 38.36901 6018 ft 240 kts 331°
2026-04-17 20:58 54.86163 38.35611 6012 ft 231 kts 331°
2026-04-17 20:58 54.87593 38.34353 6012 ft 228 kts 330°
2026-04-17 20:59 54.89017 38.33096 6014 ft 226 kts 330°
2026-04-17 20:59 54.90413 38.31865 6015 ft 225 kts 330°
2026-04-17 20:59 54.91826 38.30618 6013 ft 225 kts 330°
2026-04-17 20:59 54.93213 38.29393 6015 ft 225 kts 330°
2026-04-17 21:00 54.94600 38.28169 6014 ft 225 kts 330°
2026-04-17 21:00 54.96003 38.26928 6015 ft 225 kts 330°
2026-04-17 21:00 54.97399 38.25691 6013 ft 225 kts 330°
2026-04-17 21:00 54.98829 38.24421 6011 ft 225 kts 330°
2026-04-17 21:01 55.00236 38.23173 6009 ft 225 kts 330°
2026-04-17 21:01 55.01633 38.21933 6009 ft 225 kts 330°
2026-04-17 21:01 55.03032 38.20690 6008 ft 225 kts 330°
2026-04-17 21:01 55.04426 38.19452 6009 ft 224 kts 330°
2026-04-17 21:02 55.05809 38.18221 6010 ft 224 kts 330°
2026-04-17 21:02 55.07203 38.16980 6010 ft 224 kts 330°
2026-04-17 21:02 55.08578 38.15756 6014 ft 224 kts 330°
2026-04-17 21:02 55.09975 38.14511 6017 ft 224 kts 330°
2026-04-17 21:03 55.11383 38.13269 6023 ft 224 kts 333°
2026-04-17 21:03 55.12905 38.12627 6024 ft 230 kts 356°
2026-04-17 21:03 55.14502 38.12898 6036 ft 233 kts
2026-04-17 21:03 55.16089 38.13353 6035 ft 233 kts
2026-04-17 21:04 55.17705 38.13825 6037 ft 233 kts
2026-04-17 21:04 55.19331 38.14283 6033 ft 233 kts
2026-04-17 21:04 55.20929 38.14717 6031 ft 232 kts
2026-04-17 21:04 55.22523 38.15142 6030 ft 232 kts
2026-04-17 21:05 55.24140 38.15545 6030 ft 232 kts
2026-04-17 21:05 55.25732 38.15931 6034 ft 231 kts
2026-04-17 21:05 55.27330 38.16318 6033 ft 231 kts
2026-04-17 21:05 55.28936 38.16711 6033 ft 231 kts
2026-04-17 21:06 55.30516 38.17098 6031 ft 231 kts
2026-04-17 21:06 55.32119 38.17067 6016 ft 226 kts 340°
2026-04-17 21:06 55.33524 38.15808 6026 ft 229 kts 323°
2026-04-17 21:06 55.34849 38.14179 6018 ft 230 kts 322°
2026-04-17 21:07 55.36164 38.12558 6013 ft 230 kts 322°
2026-04-17 21:07 55.37476 38.10957 6011 ft 230 kts 323°
2026-04-17 21:07 55.38793 38.09365 6006 ft 230 kts 323°
2026-04-17 21:07 55.40128 38.07758 5984 ft 231 kts 323°
2026-04-17 21:08 55.41468 38.06148 5678 ft 232 kts 324°
2026-04-17 21:08 55.42805 38.04544 5367 ft 232 kts 324°
2026-04-17 21:08 55.44142 38.02942 5070 ft 230 kts 324°
2026-04-17 21:08 55.45448 38.01376 4939 ft 225 kts 324°
2026-04-17 21:09 55.46772 37.99784 4968 ft 227 kts 324°
2026-04-17 21:09 55.48084 37.98202 4990 ft 227 kts 324°
2026-04-17 21:09 55.49414 37.96597 4998 ft 227 kts 324°
2026-04-17 21:09 55.50722 37.95020 5003 ft 226 kts 324°
2026-04-17 21:10 55.52019 37.93452 5004 ft 226 kts 324°
2026-04-17 21:10 55.53309 37.91888 5000 ft 226 kts 324°
2026-04-17 21:10 55.54611 37.90292 4991 ft 226 kts 324°
2026-04-17 21:10 55.55913 37.88687 4748 ft 228 kts 324°
2026-04-17 21:11 55.57217 37.87081 4438 ft 227 kts 324°
2026-04-17 21:11 55.58526 37.85469 4148 ft 226 kts 324°
2026-04-17 21:11 55.59712 37.83749 4006 ft 216 kts 305°
2026-04-17 21:11 55.60117 37.81309 3998 ft 215 kts 263°
2026-04-17 21:12 55.59537 37.78934 4032 ft 205 kts 235°
2026-04-17 21:12 55.58716 37.76991 4060 ft 188 kts 236°
2026-04-17 21:12 55.57968 37.75129 3872 ft 183 kts 237°
2026-04-17 21:12 55.57241 37.73266 3719 ft 182 kts 237°
2026-04-17 21:13 55.56451 37.71520 3568 ft 184 kts 220°
2026-04-17 21:13 55.55210 37.71006 3363 ft 190 kts 169°
2026-04-17 21:13 55.54053 37.72154 3287 ft 193 kts 142°
2026-04-17 21:13 55.53037 37.73671 3245 ft 194 kts 141°
2026-04-17 21:14 55.51992 37.75183 3027 ft 193 kts 142°
2026-04-17 21:14 55.50940 37.76600 2765 ft 190 kts 146°
2026-04-17 21:14 55.49892 37.77897 2491 ft 178 kts 147°
2026-04-17 21:14 55.48897 37.79082 2271 ft 170 kts 147°
2026-04-17 21:15 55.47918 37.80245 2039 ft 169 kts 146°
2026-04-17 21:15 55.46955 37.81401 1812 ft 165 kts 148°
2026-04-17 21:15 55.46041 37.82495 1577 ft 154 kts 145°
2026-04-17 21:15 55.45197 37.83512 1372 ft 144 kts 148°
2026-04-17 21:16 55.44368 37.84504 1182 ft 144 kts 146°
2026-04-17 21:16 55.43538 37.85502 993 ft 142 kts 147°
2026-04-17 21:16 55.42732 37.86472 799 ft 141 kts 147°
2026-04-17 21:16 55.41919 37.87442 612 ft 140 kts 146°
2026-04-17 21:17 55.41210 37.88291 603 ft 100 kts 146°
2026-04-17 21:17 55.40833 37.88775 603 ft 40 kts 131°
2026-04-17 21:17 55.40744 37.89007 603 ft 10 kts 115°
2026-04-17 21:17 55.40713 37.89127 603 ft 11 kts 108°
2026-04-17 21:18 55.40740 37.89256 603 ft 12 kts 55°
2026-04-17 21:18 55.40791 37.89386 603 ft 13 kts 55°
2026-04-17 21:18 55.40834 37.89491 603 ft 9 kts 52°
2026-04-17 21:18 55.40878 37.89583 603 ft 10 kts 57°
2026-04-17 21:19 55.40923 37.89697 603 ft 11 kts 54°
2026-04-17 21:19 55.40971 37.89815 603 ft 12 kts 54°
2026-04-17 21:19 55.41012 37.89921 603 ft 10 kts 56°
2026-04-17 21:19 55.41056 37.90035 603 ft 12 kts 56°
2026-04-17 21:20 55.41099 37.90130 603 ft 8 kts 37°
2026-04-17 21:20 55.41157 37.90161 603 ft 6 kts 12°
2026-04-17 21:20 55.41196 37.90191 603 ft 6 kts 45°
2026-04-17 21:20 55.41232 37.90236 603 ft 6 kts
2026-04-17 21:21 55.41266 37.90206 603 ft 4 kts 325°
2026-04-17 21:21 55.41288 37.90163 603 ft 5 kts 278°
2026-04-17 21:21 55.41273 37.90105 603 ft 3 kts 235°
2026-04-17 21:21 55.41265 37.90082 603 ft 1 kts 236°
2026-04-17 21:22 55.41262 37.90076 603 ft 0 kts 235°